星链-4184 (STARLINK-4184 )

导读 | 豆包AI

STARLINK-4184是美国SpaceX星链互联网卫星项目中的一员,于2022年6月17日发射入轨,属于星链低轨卫星星座组网卫星。它依托近地轨道部署,为全球提供高速互联网接入服务,尤其覆盖偏远无网络区域,支撑星链星座的全球通信覆盖能力构建,是美国商业低轨卫星星座建设的组成部分。

基本信息
目录编号:
52852
目录名称:
STARLINK-4184
国际标识:
2022-062Y
轨道中心:
EARTH
卫星名称:
星链-4184
卫星全名:
星链-4184 (STARLINK-4184 )
卫星状态:
在轨 (已飞行1413 天)
发射日期:
2022-06-17 UTC
国别 :
美国 (US)
星等 :
--
轨道信息
数据来源 国际轨道数据 AOE轨道数据
星历时间 2026-04-30T17:04:02+0800
12小时前
查看轨道信息
2026-04-29T08:00:00+0800
1天前
查看轨道信息
半长轴 6917.892km 6917.879km
偏心率 0.0000901 0.0002311
轨道倾角 53.216° 53.217°
近地点辐角 78.542° 50.923°
升交点赤经 152.085° 158.274°
平近点角 281.567° 21.152°
近地点 539.131km 538.143km
远地点 540.379km 541.341km
周期 95.438分钟 95.438分钟
每日圈数 15.088365 15.088406
详细信息
固有亮度:
5
最大亮度:
2.5
卫星平台:
Starlink v1.5
覆盖范围:
全球
运营商:
太空探索技术公司
运营商所在国:
美国
制造商(研发单位):
太空探索技术公司
制造商所在国:
美国
使用方式:
暂无
卫星简介
星链(Starlink)计划是由太空探索技术公司(SpaceX)提出的一个巨型低轨卫星互联网星座项目,计划在2019年至2024年间在太空搭建由约1.2万颗卫星组成的“星链”网络,其中1584颗将部署在地球上空550千米处的近地轨道,并从2020年开始工作。该卫星仍在工作。
2D轨道图
3D轨道图
轨道高度分析图
轨道倾角分析图
轨道综合分析图
查看轨道综合分析图